Hagerstown, MD

3:19 AM EST on November 18, 2019 (GMT -0500)
Hagerstown Regional-Henson

Weather History for KHGR - October, 2019

Change the Weather History Date:

Sunday, October 13, 2019

  Actual Average Record
Temperature  
Mean Temperature 51 °F 56 °F  
Max Temperature 63 °F 66 °F 79 °F (2001)
Min Temperature 39 °F 45 °F 32 °F (2012)
Degree Days  
Heating Degree Days 14 10  
Month to date heating degree days 56 104  
Since 1 July heating degree days 57 178  
Cooling Degree Days 0 0  
Month to date cooling degree days 35 9  
Year to date cooling degree days 1473 968  
Growing Degree Days 2 (Base 50)    
Moisture  
Dew Point 37 °F    
Average Humidity 58    
Maximum Humidity 86    
Minimum Humidity 30    
Precipitation  
Precipitation 0.00 in 0.09 in 0.33 in (2004)
Month to date precipitation 0.25 1.43  
Year to date precipitation 29.10 31.73  
Sea Level Pressure  
Sea Level Pressure 30.09 in    
Wind  
Wind Speed 3 mph (ESE)    
Max Wind Speed 9 mph    
Max Gust Speed 12 mph    
Visibility 10 miles    
Events      
T = Trace of Precipitation, MM = Missing Value Source: NWS Daily Summary

Daily Weather History Graph

Daily Weather History Graph

Search for Another Location

Airport or City:

Astronomy

Oct. 13, 2019 Rise Set
Actual Time 7:18 AM EDT 6:34 PM EDT
Civil Twilight 6:51 AM EDT 7:02 PM EDT
Nautical Twilight 6:20 AM EDT 7:33 PM EDT
Astronomical Twilight 5:49 AM EDT 8:04 PM EDT
Moon 6:56 PM EDT (10/13) 6:51 AM EDT (10/13)
Length of Visible Light 12h 10m
Length of Day
11h 16m
Full, 100% of the Moon is Illuminated
Oct 13
Full
Oct 13
Full
Oct 21
Last Quarter
Oct 27
New
Nov 4
First Quarter

Hourly Weather History & Observations

Time (EDT) Temp. Windchill Dew Point Humidity Pressure Visibility Wind Dir Wind Speed Gust Speed Precip Events Conditions
12:53 AM 52.0 °F - 37.0 °F 57% 30.12 in 10.0 mi Calm Calm - N/A   Clear
1:53 AM 46.9 °F - 36.0 °F 66% 30.13 in 10.0 mi Calm Calm - N/A   Clear
2:53 AM 48.9 °F - 36.0 °F 61% 30.12 in 10.0 mi WNW 4.6 mph - N/A   Clear
3:53 AM 45.0 °F - 35.1 °F 68% 30.12 in 10.0 mi Calm Calm - N/A   Clear
4:53 AM 42.1 °F - 35.1 °F 76% 30.13 in 10.0 mi Calm Calm - N/A   Clear
5:53 AM 43.0 °F 40.3 °F 36.0 °F 76% 30.14 in 10.0 mi SE 4.6 mph - N/A   Scattered Clouds
6:53 AM 41.0 °F 38.0 °F 37.0 °F 86% 30.16 in 10.0 mi East 4.6 mph - N/A   Overcast
7:53 AM 44.1 °F 40.8 °F 37.9 °F 79% 30.16 in 10.0 mi ENE 5.8 mph - N/A   Overcast
8:53 AM 48.0 °F - 39.0 °F 71% 30.14 in 10.0 mi NE 6.9 mph - N/A   Mostly Cloudy
9:53 AM 50.0 °F - 37.9 °F 63% 30.16 in 10.0 mi Calm Calm - N/A   Mostly Cloudy
10:53 AM 54.0 °F - 35.1 °F 49% 30.14 in 10.0 mi Calm Calm - N/A   Scattered Clouds
11:53 AM 57.0 °F - 37.0 °F 47% 30.13 in 10.0 mi Calm Calm - N/A   Mostly Cloudy
12:53 PM 60.1 °F - 37.0 °F 42% 30.11 in 10.0 mi Variable 3.5 mph - N/A   Mostly Cloudy
1:53 PM 62.1 °F - 34.0 °F 35% 30.08 in 10.0 mi South 6.9 mph - N/A   Mostly Cloudy
2:53 PM 62.1 °F - 30.0 °F 30% 30.06 in 10.0 mi SSW 5.8 mph - N/A   Overcast
3:53 PM 62.1 °F - 33.1 °F 34% 30.05 in 10.0 mi SSW 5.8 mph - N/A   Overcast
4:53 PM 63.0 °F - 37.9 °F 40% 30.04 in 10.0 mi SE 9.2 mph - N/A   Overcast
5:53 PM 62.1 °F - 37.9 °F 41% 30.04 in 10.0 mi Calm Calm - N/A   Overcast
6:53 PM 60.1 °F - 39.0 °F 46% 30.04 in 10.0 mi SSE 3.5 mph - N/A   Clear
7:53 PM 57.9 °F - 41.0 °F 53% 30.04 in 10.0 mi SSE 3.5 mph - N/A   Clear
8:53 PM 55.9 °F - 39.9 °F 55% 30.04 in 10.0 mi Calm Calm - N/A   Clear
9:53 PM 54.0 °F - 39.9 °F 59% 30.04 in 10.0 mi ESE 3.5 mph - N/A   Clear
10:53 PM 51.1 °F - 41.0 °F 68% 30.04 in 10.0 mi East 5.8 mph - N/A   Clear
11:53 PM 50.0 °F - 42.1 °F 74% 30.04 in 10.0 mi ENE 5.8 mph - N/A   Clear